TimeEST,TemperatureF,Dew PointF,Humidity,Sea Level PressureIn,VisibilityMPH,Wind Direction,Wind SpeedMPH,Gust SpeedMPH,PrecipitationIn,Events,Conditions,WindDirDegrees,DateUTC
12:51 AM,39.9,33.1,77,30.54,10.0,ENE,3.5,-,N/A,,Scattered Clouds,70,2011-12-04 05:51:00
1:51 AM,37.9,33.1,83,30.53,10.0,Calm,Calm,-,N/A,,Scattered Clouds,0,2011-12-04 06:51:00
2:51 AM,37.0,33.1,86,30.53,10.0,Calm,Calm,-,N/A,,Scattered Clouds,0,2011-12-04 07:51:00
3:51 AM,36.0,33.1,89,30.52,10.0,Calm,Calm,-,N/A,,Scattered Clouds,0,2011-12-04 08:51:00
4:51 AM,33.1,30.9,92,30.51,10.0,Calm,Calm,-,N/A,,Scattered Clouds,0,2011-12-04 09:51:00
5:51 AM,32.0,28.4,87,30.51,8.0,Calm,Calm,-,N/A,,Scattered Clouds,0,2011-12-04 10:51:00
6:51 AM,32.0,28.9,88,30.52,7.0,NE,3.5,-,N/A,,Scattered Clouds,40,2011-12-04 11:51:00
7:51 AM,34.0,30.9,89,30.54,7.0,Calm,Calm,-,N/A,,Scattered Clouds,0,2011-12-04 12:51:00
8:51 AM,41.0,37.0,86,30.53,9.0,NNE,3.5,-,N/A,,Mostly Cloudy,30,2011-12-04 13:51:00
9:51 AM,46.9,39.0,74,30.53,10.0,Calm,Calm,-,N/A,,Mostly Cloudy,0,2011-12-04 14:51:00
10:51 AM,54.0,42.1,64,30.52,10.0,WSW,3.5,-,N/A,,Mostly Cloudy,240,2011-12-04 15:51:00
11:51 AM,55.9,42.1,60,30.48,10.0,Calm,Calm,-,N/A,,Mostly Cloudy,0,2011-12-04 16:51:00
12:51 PM,59.0,39.0,48,30.44,10.0,Calm,Calm,-,N/A,,Mostly Cloudy,0,2011-12-04 17:51:00
1:51 PM,63.0,39.0,41,30.42,10.0,Calm,Calm,-,N/A,,Mostly Cloudy,0,2011-12-04 18:51:00
2:51 PM,63.0,37.9,40,30.40,10.0,Calm,Calm,-,N/A,,Mostly Cloudy,0,2011-12-04 19:51:00
3:51 PM,64.0,37.9,38,30.39,10.0,Calm,Calm,-,N/A,,Mostly Cloudy,0,2011-12-04 20:51:00
4:51 PM,60.1,39.0,46,30.39,10.0,Calm,Calm,-,N/A,,Scattered Clouds,0,2011-12-04 21:51:00
5:51 PM,54.0,41.0,62,30.40,10.0,Calm,Calm,-,N/A,,Scattered Clouds,0,2011-12-04 22:51:00
6:51 PM,51.1,41.0,68,30.40,10.0,Calm,Calm,-,N/A,,Partly Cloudy,0,2011-12-04 23:51:00
7:51 PM,50.0,41.0,71,30.40,10.0,Calm,Calm,-,N/A,,Partly Cloudy,0,2011-12-05 00:51:00
8:51 PM,46.0,39.9,79,30.40,10.0,Calm,Calm,-,N/A,,Partly Cloudy,0,2011-12-05 01:51:00
9:51 PM,46.0,39.9,79,30.39,10.0,Calm,Calm,-,N/A,,Partly Cloudy,0,2011-12-05 02:51:00
10:51 PM,46.0,39.9,79,30.39,10.0,Calm,Calm,-,N/A,,Scattered Clouds,0,2011-12-05 03:51:00
11:51 PM,45.0,39.9,82,30.38,10.0,Calm,Calm,-,N/A,,Scattered Clouds,0,2011-12-05 04:51:00